El Dorado, AR

6:49 PM CST on November 23, 2017 (GMT -0600)
South Arkansas Regional At Goodwin

Weather History for KELD - October, 2013

Change the Weather History Date:

Saturday, October 5, 2013

  Actual Average Record
Temperature  
Mean Temperature 71 °F 67 °F  
Max Temperature 82 °F 80 °F 96 °F (1954)
Min Temperature 60 °F 55 °F 35 °F (2010)
Degree Days  
Heating Degree Days 0 2  
Month to date heating degree days 0 8  
Since 1 July heating degree days 0 20  
Cooling Degree Days 6 4  
Month to date cooling degree days 51 23  
Year to date cooling degree days 2119 2050  
Growing Degree Days 22 (Base 50)    
Moisture  
Dew Point 71 °F    
Average Humidity 90    
Maximum Humidity 100    
Minimum Humidity 79    
Precipitation  
Precipitation 0.46 in 0.15 in 2.71 in (1998)
Month to date precipitation 0.57 0.72  
Year to date precipitation 30.51 38.38  
Snow  
Snow 0.00 in - - ()
Month to date snowfall 0.0  
Since 1 July snowfall 0.0  
Since 1 September snowfall 0.0  
Snow Depth 0.00 in    
Sea Level Pressure  
Sea Level Pressure 29.96 in    
Wind  
Wind Speed 6 mph (SSW)    
Max Wind Speed 17 mph    
Max Gust Speed 23 mph    
Visibility 8 miles    
Events Rain , Thunderstorm    
T = Trace of Precipitation, MM = Missing Value Source: NWS Daily Summary

Daily Weather History Graph

Daily Weather History Graph

Search for Another Location

Airport or City:

Trip Planner

Search our weather history database for the weather conditions in past years. The results will help you decide how hot, cold, wet, or windy it might be!

Date:

Astronomy

Oct. 05, 2013 Rise Set
Actual Time 7:08 AM CDT 6:50 PM CDT
Civil Twilight 6:43 AM CDT 7:14 PM CDT
Nautical Twilight 6:15 AM CDT 7:43 PM CDT
Astronomical Twilight 5:46 AM CDT 8:12 PM CDT
Moon 7:44 AM CDT (10/5) 7:14 PM CDT (10/5)
Length of Visible Light 12h 31m
Length of Day
11h 41m
New Moon, 1% of the Moon is Illuminated
Oct 5
New Moon
Oct 11
First Quarter
Oct 18
Full
Oct 26
Last Quarter
Nov 3
New

Hourly Weather History & Observations

Time (CDT) Temp. Heat Index Dew Point Humidity Pressure Visibility Wind Dir Wind Speed Gust Speed Precip Events Conditions
12:43 AM 75.2 °F - 73.4 °F 94% 29.98 in 9.0 mi South 3.5 mph - N/A   Overcast
12:53 AM 75.0 °F - 73.9 °F 96% 29.97 in 10.0 mi SSE 4.6 mph - N/A   Overcast
1:53 AM 73.9 °F - 73.0 °F 97% 29.98 in 10.0 mi SSE 5.8 mph - N/A   Overcast
2:53 AM 73.9 °F - 72.0 °F 93% 29.97 in 10.0 mi SSE 4.6 mph - N/A   Overcast
3:53 AM 73.0 °F - 72.0 °F 96% 29.96 in 10.0 mi SSE 5.8 mph - N/A   Clear
4:24 AM 71.6 °F - 71.6 °F 100% 29.97 in 9.0 mi SE 5.8 mph - N/A   Partly Cloudy
4:53 AM 72.0 °F - 71.1 °F 97% 29.96 in 8.0 mi SSE 3.5 mph - N/A   Partly Cloudy
5:38 AM 71.6 °F - 71.6 °F 100% 29.97 in 9.0 mi SSE 5.8 mph - N/A   Mostly Cloudy
5:53 AM 72.0 °F - 71.1 °F 97% 29.96 in 8.0 mi SSE 5.8 mph - N/A   Overcast
6:53 AM 72.0 °F - 71.1 °F 97% 29.97 in 7.0 mi SSE 8.1 mph - N/A   Overcast
7:05 AM 71.6 °F - 71.6 °F 100% 29.98 in 7.0 mi SSE 5.8 mph - N/A   Overcast
7:53 AM 73.0 °F - 72.0 °F 96% 29.97 in 7.0 mi SSE 4.6 mph - N/A   Overcast
8:53 AM 73.9 °F - 72.0 °F 93% 29.98 in 9.0 mi SSE 5.8 mph - N/A   Overcast
9:53 AM 75.0 °F - 73.0 °F 94% 30.00 in 9.0 mi South 5.8 mph - N/A   Overcast
10:03 AM 75.2 °F - 73.4 °F 94% 30.01 in 10.0 mi SSE 5.8 mph - N/A   Overcast
10:53 AM 77.0 °F - 73.0 °F 88% 29.99 in 10.0 mi South 6.9 mph - N/A   Overcast
11:26 AM 78.8 °F - 73.4 °F 83% 30.00 in 10.0 mi SSE 8.1 mph - N/A   Overcast
11:53 AM 79.0 °F - 73.0 °F 82% 29.98 in 10.0 mi SE 8.1 mph - N/A   Overcast
12:53 PM 81.0 °F 85.8 °F 73.0 °F 77% 29.96 in 10.0 mi South 8.1 mph - N/A   Overcast
1:26 PM 80.6 °F 86.2 °F 75.2 °F 84% 29.96 in 6.0 mi SSE 4.6 mph - 0.02 in Rain Light Rain
1:53 PM 80.1 °F 85.4 °F 75.9 °F 87% 29.94 in 9.0 mi South 6.9 mph - 0.03 in Rain , Thunderstorm Light Rain
2:17 PM 80.6 °F 85.4 °F 73.4 °F 79% 29.94 in 10.0 mi SW 4.6 mph - 0.00 in Thunderstorm Overcast
2:33 PM 75.2 °F - 69.8 °F 83% 29.94 in 10.0 mi West 9.2 mph 18.4 mph 0.00 in   Overcast
2:53 PM 72.0 °F - 70.0 °F 93% 29.94 in 1.8 mi West 5.8 mph - 0.05 in Rain Heavy Rain
3:13 PM 71.6 °F - 69.8 °F 94% 29.96 in 0.8 mi West 8.1 mph - 0.18 in Rain Heavy Rain
3:15 PM 71.6 °F - 69.8 °F 94% 29.96 in 0.8 mi West 8.1 mph - 0.21 in Rain , Thunderstorm Heavy Rain
3:23 PM 71.6 °F - 69.8 °F 94% 29.95 in 1.0 mi WNW 8.1 mph - 0.28 in Rain , Thunderstorm Heavy Thunderstorms and Rain
3:37 PM 71.6 °F - 69.8 °F 94% 29.93 in 3.0 mi WNW 6.9 mph - 0.33 in Rain , Thunderstorm Rain
3:53 PM 71.1 °F - 70.0 °F 96% 29.91 in 4.0 mi Calm Calm - 0.35 in Rain Rain
4:53 PM 73.0 °F - 72.0 °F 96% 29.90 in 10.0 mi SE 8.1 mph - 0.00 in Rain Light Rain
5:53 PM 75.0 °F - 72.0 °F 90% 29.88 in 10.0 mi East 6.9 mph - 0.00 in   Scattered Clouds
6:53 PM 73.9 °F - 72.0 °F 93% 29.90 in 10.0 mi Calm Calm - N/A   Mostly Cloudy
7:53 PM 73.0 °F - 72.0 °F 96% 29.88 in 10.0 mi Calm Calm - N/A   Scattered Clouds
8:53 PM 72.0 °F - 72.0 °F 100% 29.93 in 10.0 mi West 6.9 mph - N/A   Mostly Cloudy
9:00 PM 73.4 °F - 71.6 °F 94% 29.94 in 10.0 mi West 4.6 mph - N/A Thunderstorm Mostly Cloudy
9:31 PM 73.4 °F - 71.6 °F 94% 29.94 in 9.0 mi Calm Calm - 0.02 in Rain , Thunderstorm Light Rain
9:38 PM 73.4 °F - 71.6 °F 94% 29.95 in 10.0 mi Calm Calm - 0.02 in Rain , Thunderstorm Light Rain
9:49 PM 73.4 °F - 71.6 °F 94% 29.95 in 10.0 mi WNW 4.6 mph - 0.02 in Rain Light Rain
9:53 PM 73.0 °F - 72.0 °F 96% 29.94 in 10.0 mi WNW 4.6 mph - 0.02 in Rain Light Rain
10:46 PM 68.0 °F - 66.2 °F 94% 29.96 in 10.0 mi NW 15.0 mph - 0.01 in   Overcast
10:53 PM 66.9 °F - 66.0 °F 97% 29.96 in 10.0 mi NW 12.7 mph - 0.01 in   Overcast
11:22 PM 64.4 °F - 62.6 °F 94% 29.98 in 9.0 mi NW 13.8 mph - 0.00 in Rain Light Rain
11:53 PM 62.1 °F - 60.1 °F 93% 29.97 in 10.0 mi NNW 11.5 mph - 0.00 in   Overcast